Location: Newark
(3.0500°N, 36.0167°E)
Time: 07:14:17
(UTC+00:00)

S-56A Canister/Altair - All Passes

Search period start: 22 August 2019 00:00
Search period end: 01 September 2019 00:00
Orbit: 633 x 2499 km, 38.9° (Epoch: 21 August)

Date Brightness Start Highest point End Pass type
(mag) Time Alt. Az. Time Alt. Az. Time Alt. Az.
22 Aug - 00:58:16 10° NNW 01:04:21 28° NE 01:12:45 10° E visible
22 Aug - 03:00:24 10° WNW 03:08:58 71° SW 03:21:53 10° SE visible
22 Aug - 05:07:56 10° WSW 05:16:13 23° SSW 05:26:18 10° SSE daylight
22 Aug - 11:48:47 10° S 11:52:44 12° SSE 11:56:18 10° SE daylight
22 Aug - 13:50:21 10° SSW 14:00:12 43° SE 14:06:49 10° ENE daylight
22 Aug - 15:57:13 10° WSW 16:04:37 36° NW 16:09:50 10° NNE visible
23 Aug - 00:26:25 10° N 00:31:33 22° NE 00:38:17 10° E visible
23 Aug - 02:27:50 10° NW 02:35:49 80° SW 02:48:10 10° SE visible
23 Aug - 04:34:26 10° W 04:42:38 25° SSW 04:53:02 10° SSE daylight
23 Aug - 11:16:20 10° S 11:19:09 11° SSE 11:21:47 10° SE daylight
23 Aug - 13:16:55 10° SSW 13:27:06 38° SE 13:34:07 10° ENE daylight
23 Aug - 15:23:24 10° WSW 15:31:58 47° NW 15:37:44 10° NNE daylight
23 Aug - 23:54:51 10° N 23:58:48 16° NE 00:03:35 10° E visible
24 Aug - 01:55:20 10° NW 02:02:47 88° NE 02:14:25 10° SE visible
24 Aug - 04:01:08 10° W 04:09:09 28° SSW 04:19:42 10° SSE daylight
24 Aug - 12:43:30 10° SSW 12:53:55 34° SE 13:01:17 10° E daylight
24 Aug - 14:49:35 10° WSW 14:59:14 60° NW 15:05:32 10° NE daylight
24 Aug - 23:24:05 10° NNE 23:26:02 11° NE 23:28:10 10° ENE visible
25 Aug - 01:22:57 10° NW 01:29:52 75° NE 01:40:39 10° SE visible
25 Aug - 03:28:00 10° W 03:35:45 30° SSW 03:46:19 10° SSE daylight
25 Aug - 12:10:05 10° SSW 12:20:38 31° SSE 12:28:19 10° E daylight
25 Aug - 14:15:48 10° SW 14:26:26 73° NW 14:33:15 10° NE daylight
25 Aug - 16:28:53 10° NW 16:30:15 11° NW 16:31:32 10° NNW visible
26 Aug - 00:50:39 10° NW 00:57:02 62° NE 01:06:52 10° ESE visible
26 Aug - 02:55:01 10° W 03:02:26 34° SW 03:12:54 10° SSE visible
26 Aug - 11:36:41 10° SSW 11:47:15 28° SSE 11:55:13 10° E daylight
26 Aug - 13:42:02 10° SW 13:53:31 86° NW 14:00:53 10° NE daylight
26 Aug - 15:53:03 10° WNW 15:57:29 15° NW 16:01:10 10° N visible
27 Aug - 00:18:26 10° NNW 00:24:18 49° NE 00:33:03 10° ESE visible
27 Aug - 02:22:10 10° W 02:29:14 38° SW 02:39:28 10° SSE visible
27 Aug - 04:34:52 10° SW 04:37:17 11° SSW 04:39:50 10° SSW daylight
27 Aug - 11:03:21 10° SSW 11:13:46 25° SSE 11:21:57 10° E daylight
27 Aug - 13:08:16 10° SW 13:20:30 82° SE 13:28:25 10° NE daylight
27 Aug - 15:18:17 10° W 15:24:43 21° NW 15:29:40 10° N daylight
27 Aug - 23:46:19 10° NNW 23:51:38 38° NE 23:59:15 10° ESE visible
28 Aug - 01:49:25 10° WNW 01:56:07 42° SW 02:06:03 10° SSE visible
28 Aug - 04:00:12 10° SW 04:03:40 12° SSW 04:07:30 10° S daylight
28 Aug - 10:30:04 10° SSW 10:40:12 23° SSE 10:48:28 10° E daylight
28 Aug - 12:34:33 10° SW 12:47:23 72° SE 12:55:51 10° ENE daylight
28 Aug - 14:43:49 10° W 14:51:55 27° NW 14:57:52 10° N daylight
28 Aug - 23:14:17 10° NNW 23:19:00 29° NE 23:25:23 10° ESE visible
29 Aug - 01:16:47 10° WNW 01:23:06 48° SW 01:32:38 10° SE visible
29 Aug - 03:26:08 10° SW 03:30:09 13° SSW 03:34:45 10° S daylight
29 Aug - 09:56:53 10° S 10:06:33 21° SSE 10:14:46 10° ESE daylight
29 Aug - 12:00:52 10° SW 12:14:09 63° SE 12:23:10 10° ENE daylight
29 Aug - 14:09:27 10° WSW 14:19:06 34° NW 14:25:51 10° NNE daylight
29 Aug - 22:42:25 10° N 22:46:25 22° NE 22:51:27 10° E night (unlit)
30 Aug - 00:44:13 10° WNW 00:50:12 56° SW 00:59:15 10° SE visible
30 Aug - 02:52:26 10° SW 02:56:45 14° SSW 03:01:51 10° S visible
30 Aug - 09:23:49 10° S 09:32:49 18° SSE 09:40:47 10° ESE daylight
30 Aug - 11:27:14 10° SW 11:40:50 56° SE 11:50:23 10° ENE daylight
30 Aug - 13:35:12 10° WSW 13:46:11 43° NW 13:53:42 10° NNE daylight
30 Aug - 22:10:48 10° N 22:13:49 16° NE 22:17:18 10° E night (unlit)
31 Aug - 00:11:45 10° WNW 00:17:23 67° SW 00:25:52 10° SE visible
31 Aug - 02:18:59 10° WSW 02:23:28 15° SSW 02:28:53 10° S visible
31 Aug - 08:50:57 10° S 08:59:02 16° SSE 09:06:27 10° ESE daylight
31 Aug - 10:53:40 10° SSW 11:07:24 50° SE 11:17:28 10° ENE daylight
31 Aug - 13:01:02 10° WSW 13:13:11 52° NW 13:21:26 10° NNE daylight
31 Aug - 21:39:59 10° NNE 21:41:11 11° NE 21:42:27 10° ENE night (unlit)
31 Aug - 23:39:20 10° NW 23:44:39 81° SW 23:52:32 10° SE visible
